CST,Max TemperatureF,Mean TemperatureF,Min TemperatureF,Max Dew PointF,MeanDew PointF,Min DewpointF,Max Humidity, Mean Humidity, Min Humidity, Max Sea Level PressureIn, Mean Sea Level PressureIn, Min Sea Level PressureIn, Max VisibilityMiles, Mean VisibilityMiles, Min VisibilityMiles, Max Wind SpeedMPH, Mean Wind SpeedMPH, Max Gust SpeedMPH,PrecipitationIn, CloudCover, Events, WindDirDegrees
2012-12-1,61,48,36,58,47,33,99,94,80,29.96,29.85,29.75,7,2,0,12,7,16,0.00,5,Fog,181
2012-12-2,59,46,33,51,42,33,99,90,56,30.02,29.91,29.78,10,5,0,15,4,,0.00,2,Fog,143
2012-12-3,61,50,37,57,42,27,99,72,38,30.09,29.81,29.61,10,8,2,26,11,33,0.02,0,,266
2012-12-4,60,45,30,26,24,21,70,45,23,30.29,30.22,30.09,10,10,10,12,6,,0.00,0,,285
2012-12-5,59,46,33,31,26,20,74,50,22,30.31,30.12,29.94,10,10,10,24,11,37,0.00,0,,143
2012-12-6,50,46,42,33,30,28,63,54,45,29.99,29.92,29.86,10,10,10,16,10,23,0.00,5,,25
2012-12-7,45,38,31,31,27,24,88,64,43,29.98,29.93,29.87,10,10,10,10,4,,0.00,3,,21
2012-12-8,40,33,26,33,28,23,96,81,63,30.01,29.94,29.87,10,8,2,10,5,,0.00,5,,107
2012-12-9,37,26,16,36,20,7,97,74,58,30.10,29.96,29.82,10,8,2,26,13,33,0.00,7,Rain,285
2012-12-10,29,18,6,6,4,1,79,57,32,30.10,30.00,29.91,10,10,10,20,12,28,0.00,1,,248
2012-12-11,45,33,21,22,16,6,75,52,33,30.02,29.98,29.91,10,10,10,16,8,24,0.00,2,,234
2012-12-12,53,40,28,18,15,12,64,41,20,30.03,29.99,29.94,10,10,10,28,15,38,0.00,0,,174
2012-12-13,53,42,31,22,18,13,63,42,28,30.06,30.02,29.97,10,10,10,15,10,21,0.00,0,,174
2012-12-14,54,40,25,42,29,20,88,62,44,30.05,29.86,29.59,10,10,5,24,8,33,0.06,3,Rain-Thunderstorm,139
2012-12-15,47,41,35,46,40,32,97,92,87,29.71,29.56,29.43,10,7,3,21,14,29,0.35,8,Rain,254
2012-12-16,35,33,31,33,30,28,96,90,82,29.80,29.76,29.71,10,6,4,13,6,,0.00,8,Snow,329
2012-12-17,32,29,26,32,28,26,98,94,86,29.79,29.70,29.58,10,4,0,10,3,,0.00,7,Fog,156
2012-12-18,43,36,29,34,31,28,96,83,69,29.86,29.66,29.46,10,9,3,24,9,34,0.00,1,,252
2012-12-19,37,34,30,34,32,29,99,94,84,29.89,29.80,29.69,7,4,1,25,8,38,0.15,6,Rain-Snow-Thunderstorm,57
2012-12-20,31,24,17,30,18,13,94,84,71,30.21,29.97,29.69,10,6,1,36,23,45,0.00,4,Snow,311
2012-12-21,31,22,12,21,15,8,82,73,55,30.33,30.25,30.16,10,10,10,12,5,,0.00,0,,172
2012-12-22,36,28,21,28,21,17,90,77,66,30.16,30.01,29.91,10,10,7,12,8,16,0.00,0,,186
2012-12-23,21,16,11,18,13,8,91,83,72,30.03,30.00,29.95,10,8,5,9,6,,0.00,1,,347
2012-12-24,19,14,9,15,10,6,92,79,68,30.23,30.10,29.99,10,9,4,22,11,28,0.00,4,Snow,332
2012-12-25,14,8,3,7,3,-2,86,75,69,30.46,30.34,30.22,10,10,10,18,10,24,0.00,2,,348
2012-12-26,17,10,3,9,5,0,86,79,67,30.33,30.23,30.15,10,10,10,9,5,,0.00,0,,345
2012-12-27,25,18,10,22,17,8,90,85,79,30.14,30.03,29.95,10,9,2,16,7,16,0.00,7,Snow,99
2012-12-28,24,21,18,22,19,14,94,87,80,30.09,30.00,29.96,10,6,4,14,6,16,0.00,8,Snow,312
2012-12-29,28,18,9,20,13,7,91,80,70,30.23,30.18,30.10,10,10,7,12,7,16,0.00,2,Snow,267
2012-12-30,45,31,17,28,22,14,89,68,43,30.23,30.08,29.95,10,10,10,21,9,36,0.00,0,,204
2012-12-31,25,21,17,20,17,12,91,81,71,30.23,30.16,30.09,10,9,2,10,8,,0.00,7,Snow,3